DAL1087 KSLC-KLAX

Flight info

Callsign DAL1087
Flight time 1h 19m
Altitude 36000
Route ZIONZ1 EHK LAKRR Q73 HAKMN ANJLL4
Aircraft A321/M-SDE3FGHIRWY/LB1

Departure

Time 2026-05-07 13:54
Airport Salt Lake City International Airport (KSLC)

Arrival

Time 2026-05-07 15:14
Airport Los Angeles International Airport (KLAX)
Time Latitude Longitude Altitude Speed Heading
2026-05-07 13:42 40.78493 -111.98820 4231 ft 0 kts 355°
2026-05-07 13:43 40.78477 -111.98817 4230 ft 4 kts 343°
2026-05-07 13:43 40.78454 -111.98802 4230 ft 4 kts 312°
2026-05-07 13:44 40.78442 -111.98773 4230 ft 4 kts 273°
2026-05-07 13:44 40.78441 -111.98763 4231 ft 0 kts 265°
2026-05-07 13:47 40.78441 -111.98771 4230 ft 3 kts 265°
2026-05-07 13:48 40.78438 -111.98816 4231 ft 7 kts 265°
2026-05-07 13:48 40.78432 -111.98896 4231 ft 11 kts 264°
2026-05-07 13:48 40.78423 -111.99011 4231 ft 15 kts 265°
2026-05-07 13:48 40.78414 -111.99162 4231 ft 18 kts 265°
2026-05-07 13:49 40.78420 -111.99339 4231 ft 19 kts 313°
2026-05-07 13:49 40.78557 -111.99357 4231 ft 22 kts 356°
2026-05-07 13:49 40.78721 -111.99376 4231 ft 25 kts 355°
2026-05-07 13:49 40.78910 -111.99397 4231 ft 29 kts 355°
2026-05-07 13:50 40.79123 -111.99421 4231 ft 33 kts 355°
2026-05-07 13:50 40.79364 -111.99450 4231 ft 37 kts 355°
2026-05-07 13:50 40.79631 -111.99481 4231 ft 39 kts 355°
2026-05-07 13:50 40.79899 -111.99513 4231 ft 38 kts 355°
2026-05-07 13:51 40.80154 -111.99543 4231 ft 36 kts 354°
2026-05-07 13:51 40.80398 -111.99571 4231 ft 34 kts 355°
2026-05-07 13:51 40.80632 -111.99597 4231 ft 33 kts 355°
2026-05-07 13:51 40.80779 -111.99627 4231 ft 16 kts 330°
2026-05-07 13:52 40.80820 -111.99736 4231 ft 13 kts 240°
2026-05-07 13:52 40.80768 -111.99829 4231 ft 12 kts 259°
2026-05-07 13:52 40.80752 -111.99921 4231 ft 8 kts 229°
2026-05-07 13:52 40.80713 -111.99926 4231 ft 5 kts 174°
2026-05-07 13:53 40.80670 -111.99920 4232 ft 11 kts 174°
2026-05-07 13:53 40.80517 -111.99904 4231 ft 46 kts 175°
2026-05-07 13:53 40.79979 -111.99839 4233 ft 108 kts 175°
2026-05-07 13:53 40.79055 -111.99730 4234 ft 156 kts 174°
2026-05-07 13:54 40.77864 -111.99588 4459 ft 178 kts 175°
2026-05-07 13:54 40.76646 -111.99428 5234 ft 175 kts 172°
2026-05-07 13:54 40.75424 -111.99248 5876 ft 178 kts 172°
2026-05-07 13:54 40.74144 -111.99058 6143 ft 194 kts 172°
2026-05-07 13:55 40.72747 -111.98856 6290 ft 215 kts 171°
2026-05-07 13:55 40.71185 -111.98634 6429 ft 237 kts 173°
2026-05-07 13:55 40.69453 -111.98393 6697 ft 261 kts 173°
2026-05-07 13:55 40.67611 -111.98139 7304 ft 269 kts 175°
2026-05-07 13:56 40.65717 -111.97882 7929 ft 277 kts 175°
2026-05-07 13:56 40.63771 -111.97619 8608 ft 283 kts 176°
2026-05-07 13:56 40.61788 -111.97351 9332 ft 288 kts 177°
2026-05-07 13:56 40.59796 -111.97078 10034 ft 294 kts 177°
2026-05-07 13:57 40.57695 -111.96792 10338 ft 314 kts 177°
2026-05-07 13:57 40.55436 -111.96489 10532 ft 336 kts 177°
2026-05-07 13:57 40.53061 -111.96169 11033 ft 346 kts 176°
2026-05-07 13:57 40.50639 -111.95838 11627 ft 352 kts 176°
2026-05-07 13:58 40.48181 -111.95498 12255 ft 358 kts 177°
2026-05-07 13:58 40.45675 -111.95158 12859 ft 365 kts 177°
2026-05-07 13:58 40.43123 -111.94894 13443 ft 371 kts 179°
2026-05-07 13:58 40.40557 -111.94708 14035 ft 376 kts 180°
2026-05-07 13:59 40.37920 -111.94553 14623 ft 381 kts 180°
2026-05-07 13:59 40.35250 -111.94407 15243 ft 384 kts 181°
2026-05-07 13:59 40.32560 -111.94254 15862 ft 388 kts 180°
2026-05-07 13:59 40.29841 -111.94085 16477 ft 392 kts 180°
2026-05-07 14:00 40.27111 -111.93948 17087 ft 394 kts 185°
2026-05-07 14:00 40.24376 -111.94260 17664 ft 395 kts 191°
2026-05-07 14:00 40.21664 -111.94691 18241 ft 398 kts 191°
2026-05-07 14:00 40.18896 -111.95127 18818 ft 401 kts 191°
2026-05-07 14:01 40.16110 -111.95566 19318 ft 405 kts 191°
2026-05-07 14:01 40.13298 -111.96013 19816 ft 408 kts 191°
2026-05-07 14:01 40.10469 -111.96451 20298 ft 411 kts 191°
2026-05-07 14:01 40.07607 -111.96878 20749 ft 415 kts 191°
2026-05-07 14:02 40.04718 -111.97298 21210 ft 418 kts 190°
2026-05-07 14:02 40.02800 -111.97574 21525 ft 420 kts 189°
2026-05-07 14:02 39.98919 -111.98133 22137 ft 425 kts 190°
2026-05-07 14:02 39.95959 -111.98559 22597 ft 429 kts 190°
2026-05-07 14:03 39.93982 -111.98846 22894 ft 431 kts 190°
2026-05-07 14:03 39.90983 -111.99282 23348 ft 434 kts 190°
2026-05-07 14:03 39.87959 -111.99722 23783 ft 438 kts 190°
2026-05-07 14:03 39.84923 -112.00162 24151 ft 441 kts 190°
2026-05-07 14:04 39.81870 -112.00603 24536 ft 443 kts 190°
2026-05-07 14:04 39.78795 -112.01048 24925 ft 445 kts 190°
2026-05-07 14:04 39.75710 -112.01495 25301 ft 447 kts 190°
2026-05-07 14:04 39.72605 -112.01949 25666 ft 450 kts 190°
2026-05-07 14:05 39.69485 -112.02405 26037 ft 452 kts 190°
2026-05-07 14:05 39.66342 -112.02862 26391 ft 455 kts 190°
2026-05-07 14:05 39.63183 -112.03321 26769 ft 457 kts 190°
2026-05-07 14:05 39.60055 -112.03779 27151 ft 459 kts 189°
2026-05-07 14:06 39.56870 -112.04240 27520 ft 461 kts 189°
2026-05-07 14:06 39.53665 -112.04699 27871 ft 464 kts 189°
2026-05-07 14:06 39.50437 -112.05159 28225 ft 466 kts 189°
2026-05-07 14:06 39.47192 -112.05624 28561 ft 469 kts 189°
2026-05-07 14:07 39.43969 -112.06089 28888 ft 471 kts 189°
2026-05-07 14:07 39.40694 -112.06559 29193 ft 473 kts 189°
2026-05-07 14:07 39.37409 -112.07028 29543 ft 475 kts 189°
2026-05-07 14:07 39.34105 -112.07497 29869 ft 477 kts 189°
2026-05-07 14:08 39.30829 -112.07960 30165 ft 479 kts 189°
2026-05-07 14:08 39.27503 -112.08426 30417 ft 481 kts 189°
2026-05-07 14:08 39.24163 -112.08894 30672 ft 484 kts 189°
2026-05-07 14:08 39.20810 -112.09363 30934 ft 486 kts 189°
2026-05-07 14:09 39.17441 -112.09854 31198 ft 487 kts 191°
2026-05-07 14:09 39.14130 -112.10774 31477 ft 484 kts 200°
2026-05-07 14:09 39.10988 -112.12298 31853 ft 479 kts 209°
2026-05-07 14:09 39.08098 -112.14301 32176 ft 476 kts 214°
2026-05-07 14:10 39.05215 -112.16425 32545 ft 477 kts 213°
2026-05-07 14:10 39.02324 -112.18540 32911 ft 476 kts 213°
2026-05-07 14:10 38.99430 -112.20644 33286 ft 477 kts 213°
2026-05-07 14:10 38.96529 -112.22746 33659 ft 476 kts 213°
2026-05-07 14:11 38.93680 -112.24810 33962 ft 477 kts 213°
2026-05-07 14:11 38.90787 -112.26907 34305 ft 477 kts 213°
2026-05-07 14:11 38.87898 -112.29001 34616 ft 476 kts 213°
2026-05-07 14:11 38.85007 -112.31096 34916 ft 476 kts 213°
2026-05-07 14:12 38.82122 -112.33186 35205 ft 476 kts 213°
2026-05-07 14:12 38.79241 -112.35275 35474 ft 476 kts 213°
2026-05-07 14:12 38.76351 -112.37361 35724 ft 476 kts 212°
2026-05-07 14:12 38.73452 -112.39451 35994 ft 476 kts 212°
2026-05-07 14:13 38.70564 -112.41534 36143 ft 476 kts 212°
2026-05-07 14:13 38.64857 -112.45652 36140 ft 470 kts 212°
2026-05-07 14:14 38.59147 -112.49767 36141 ft 470 kts 212°
2026-05-07 14:14 38.53449 -112.53861 36140 ft 469 kts 212°
2026-05-07 14:15 38.47778 -112.57921 36151 ft 469 kts 212°
2026-05-07 14:15 38.42069 -112.61995 36154 ft 469 kts 212°
2026-05-07 14:16 38.36371 -112.66061 36167 ft 469 kts 212°
2026-05-07 14:16 38.30676 -112.70130 36175 ft 469 kts 212°
2026-05-07 14:17 38.24976 -112.74189 36167 ft 469 kts 212°
2026-05-07 14:17 38.19308 -112.78206 36160 ft 469 kts 212°
2026-05-07 14:18 38.13604 -112.82249 36140 ft 469 kts 211°
2026-05-07 14:18 38.07896 -112.86294 36151 ft 469 kts 211°
2026-05-07 14:19 38.02228 -112.90305 36155 ft 469 kts 211°
2026-05-07 14:19 37.96517 -112.94322 36188 ft 469 kts 211°
2026-05-07 14:20 37.90795 -112.98340 36213 ft 469 kts 211°
2026-05-07 14:20 37.85118 -113.02335 36239 ft 468 kts 211°
2026-05-07 14:21 37.79408 -113.06343 36258 ft 468 kts 211°
2026-05-07 14:21 37.73730 -113.10407 36262 ft 467 kts 212°
2026-05-07 14:22 37.68142 -113.14550 36253 ft 467 kts 212°
2026-05-07 14:22 37.62518 -113.18707 36250 ft 467 kts 212°
2026-05-07 14:23 37.56892 -113.22816 36228 ft 467 kts 211°
2026-05-07 14:23 37.51293 -113.26889 36198 ft 467 kts 211°
2026-05-07 14:24 37.45653 -113.30986 36154 ft 467 kts 211°
2026-05-07 14:24 37.40028 -113.35071 36122 ft 466 kts 211°
2026-05-07 14:25 37.34447 -113.39120 36108 ft 465 kts 211°
2026-05-07 14:25 37.28830 -113.43181 36102 ft 465 kts 211°
2026-05-07 14:26 37.23212 -113.47240 36147 ft 465 kts 211°
2026-05-07 14:26 37.17596 -113.51295 36166 ft 465 kts 211°
2026-05-07 14:27 37.12006 -113.55318 36179 ft 465 kts 211°
2026-05-07 14:27 37.06376 -113.59371 36177 ft 466 kts 210°
2026-05-07 14:28 37.00781 -113.63384 36166 ft 466 kts 210°
2026-05-07 14:28 36.95153 -113.67406 36145 ft 466 kts 210°
2026-05-07 14:29 36.89525 -113.71437 36128 ft 466 kts 211°
2026-05-07 14:29 36.83887 -113.75466 36073 ft 467 kts 210°
2026-05-07 14:30 36.78223 -113.79493 36041 ft 468 kts 210°
2026-05-07 14:30 36.72568 -113.83515 36029 ft 468 kts 210°
2026-05-07 14:31 36.66931 -113.87522 36030 ft 468 kts 210°
2026-05-07 14:31 36.61260 -113.91545 36015 ft 469 kts 210°
2026-05-07 14:32 36.55577 -113.95558 36020 ft 469 kts 210°
2026-05-07 14:32 36.49904 -113.99562 36021 ft 468 kts 210°
2026-05-07 14:33 36.44270 -114.03544 36004 ft 468 kts 210°
2026-05-07 14:33 36.38596 -114.07540 35999 ft 468 kts 210°
2026-05-07 14:34 36.32916 -114.11530 35998 ft 468 kts 210°
2026-05-07 14:34 36.27292 -114.15477 35989 ft 467 kts 210°
2026-05-07 14:35 36.21627 -114.19451 35984 ft 467 kts 210°
2026-05-07 14:35 36.15964 -114.23408 35981 ft 467 kts 210°
2026-05-07 14:36 36.10324 -114.27429 35973 ft 467 kts 215°
2026-05-07 14:36 36.05544 -114.32737 35981 ft 464 kts 230°
2026-05-07 14:37 36.01241 -114.38720 35971 ft 465 kts 230°
2026-05-07 14:37 35.94796 -114.47636 35998 ft 465 kts 230°
2026-05-07 14:38 35.90472 -114.53608 36021 ft 465 kts 230°
2026-05-07 14:38 35.86157 -114.59548 36039 ft 465 kts 230°
2026-05-07 14:39 35.81826 -114.65488 36036 ft 465 kts 230°
2026-05-07 14:39 35.77506 -114.71418 36031 ft 465 kts 230°
2026-05-07 14:40 35.73215 -114.77316 36064 ft 465 kts 230°
2026-05-07 14:40 35.68891 -114.83238 36065 ft 465 kts 230°
2026-05-07 14:41 35.64556 -114.89158 36062 ft 465 kts 230°
2026-05-07 14:41 35.60254 -114.95046 36067 ft 465 kts 230°
2026-05-07 14:42 35.55922 -115.00967 36059 ft 465 kts 230°
2026-05-07 14:42 35.51591 -115.06879 36073 ft 465 kts 230°
2026-05-07 14:43 35.47214 -115.12744 36085 ft 466 kts 228°
2026-05-07 14:43 35.42781 -115.18486 36092 ft 466 kts 228°
2026-05-07 14:44 35.38315 -115.24252 36081 ft 466 kts 228°
2026-05-07 14:44 35.33858 -115.30035 36101 ft 466 kts 229°
2026-05-07 14:45 35.30133 -115.34886 36097 ft 466 kts 229°
2026-05-07 14:45 35.25723 -115.40632 36102 ft 466 kts 229°
2026-05-07 14:46 35.21277 -115.46403 36100 ft 465 kts 229°
2026-05-07 14:46 35.16835 -115.52147 36087 ft 465 kts 229°
2026-05-07 14:47 35.12373 -115.57897 36086 ft 465 kts 229°
2026-05-07 14:47 35.07939 -115.63589 36091 ft 464 kts 229°
2026-05-07 14:48 35.03468 -115.69294 36076 ft 464 kts 229°
2026-05-07 14:48 34.99003 -115.74986 36076 ft 463 kts 229°
2026-05-07 14:49 34.94562 -115.80644 36072 ft 463 kts 229°
2026-05-07 14:49 34.90109 -115.86311 36064 ft 462 kts 229°
2026-05-07 14:50 34.85646 -115.91970 36048 ft 462 kts 229°
2026-05-07 14:50 34.81217 -115.97592 36033 ft 462 kts 229°
2026-05-07 14:51 34.76772 -116.03231 36033 ft 461 kts 229°
2026-05-07 14:51 34.72313 -116.08890 35590 ft 462 kts 229°
2026-05-07 14:52 34.70114 -116.11690 35348 ft 463 kts 229°
2026-05-07 14:52 34.67890 -116.14526 35097 ft 464 kts 229°
2026-05-07 14:52 34.65652 -116.17381 34866 ft 465 kts 229°
2026-05-07 14:52 34.63413 -116.20231 34627 ft 466 kts 229°
2026-05-07 14:53 34.61164 -116.23085 34399 ft 467 kts 228°
2026-05-07 14:53 34.58907 -116.25947 33810 ft 470 kts 228°
2026-05-07 14:53 34.56646 -116.28808 33208 ft 469 kts 228°
2026-05-07 14:53 34.54383 -116.31669 32609 ft 470 kts 228°
2026-05-07 14:54 34.52117 -116.34535 32017 ft 471 kts 228°
2026-05-07 14:54 34.49876 -116.37369 31427 ft 473 kts 228°
2026-05-07 14:54 34.47594 -116.40253 30838 ft 474 kts 228°
2026-05-07 14:54 34.45305 -116.43142 30233 ft 476 kts 228°
2026-05-07 14:55 34.43030 -116.46067 29602 ft 476 kts 232°
2026-05-07 14:55 34.41095 -116.49307 29054 ft 475 kts 242°
2026-05-07 14:55 34.39569 -116.52862 28487 ft 475 kts 246°
2026-05-07 14:55 34.38100 -116.56452 27921 ft 476 kts 246°
2026-05-07 14:56 34.36620 -116.60051 27373 ft 478 kts 246°
2026-05-07 14:56 34.35130 -116.63664 26823 ft 479 kts 245°
2026-05-07 14:56 34.33652 -116.67229 26279 ft 481 kts 245°
2026-05-07 14:56 34.32149 -116.70867 25738 ft 482 kts 246°
2026-05-07 14:57 34.30668 -116.74513 25217 ft 483 kts 246°
2026-05-07 14:57 34.29197 -116.78173 24698 ft 484 kts 246°
2026-05-07 14:57 34.27726 -116.81857 24163 ft 486 kts 246°
2026-05-07 14:57 34.26253 -116.85542 23627 ft 487 kts 246°
2026-05-07 14:58 34.24770 -116.89248 23022 ft 489 kts 246°
2026-05-07 14:58 34.23283 -116.92945 22485 ft 487 kts 246°
2026-05-07 14:58 34.21846 -116.96495 22111 ft 459 kts 246°
2026-05-07 14:58 34.20678 -116.99923 21687 ft 423 kts 255°
2026-05-07 14:59 34.19780 -117.03234 21094 ft 407 kts 254°
2026-05-07 14:59 34.18902 -117.06465 20492 ft 403 kts 254°
2026-05-07 14:59 34.18033 -117.09665 20000 ft 398 kts 254°
2026-05-07 14:59 34.17170 -117.12845 19525 ft 396 kts 254°
2026-05-07 15:00 34.16318 -117.15991 19055 ft 393 kts 254°
2026-05-07 15:00 34.15477 -117.19081 18662 ft 390 kts 253°
2026-05-07 15:00 34.14625 -117.22189 18208 ft 388 kts 253°
2026-05-07 15:00 34.13771 -117.25280 17704 ft 386 kts 253°
2026-05-07 15:01 34.12923 -117.28350 17217 ft 383 kts 253°
2026-05-07 15:01 34.12082 -117.31391 16734 ft 381 kts 253°
2026-05-07 15:01 34.11247 -117.34406 16257 ft 378 kts 253°
2026-05-07 15:01 34.10416 -117.37412 15783 ft 375 kts 253°
2026-05-07 15:02 34.09625 -117.40400 15319 ft 372 kts 254°
2026-05-07 15:02 34.08880 -117.43351 14849 ft 370 kts 255°
2026-05-07 15:02 34.08150 -117.46320 14412 ft 367 kts 255°
2026-05-07 15:02 34.07432 -117.49265 13974 ft 364 kts 254°
2026-05-07 15:03 34.06715 -117.52189 13488 ft 362 kts 254°
2026-05-07 15:03 34.05991 -117.55089 12998 ft 360 kts 253°
2026-05-07 15:03 34.05261 -117.57960 12480 ft 356 kts 253°
2026-05-07 15:03 34.04530 -117.60790 11991 ft 349 kts 253°
2026-05-07 15:04 34.03816 -117.63542 11524 ft 339 kts 253°
2026-05-07 15:04 34.03120 -117.66236 11063 ft 334 kts 253°
2026-05-07 15:04 34.02446 -117.68861 10624 ft 330 kts 254°
2026-05-07 15:04 34.02018 -117.71569 10181 ft 327 kts 264°
2026-05-07 15:05 34.01763 -117.74291 9755 ft 323 kts 264°
2026-05-07 15:05 34.01508 -117.76944 9340 ft 313 kts 264°
2026-05-07 15:05 34.01259 -117.79514 8936 ft 303 kts 263°
2026-05-07 15:05 34.01015 -117.82012 8538 ft 297 kts 263°
2026-05-07 15:06 34.00773 -117.84478 8141 ft 294 kts 263°
2026-05-07 15:06 34.00535 -117.86885 7776 ft 291 kts 263°
2026-05-07 15:06 34.00298 -117.89303 7437 ft 289 kts 263°
2026-05-07 15:06 34.00064 -117.91701 7104 ft 287 kts 263°
2026-05-07 15:07 33.99831 -117.94088 6781 ft 286 kts 263°
2026-05-07 15:07 33.99599 -117.96467 6446 ft 284 kts 263°
2026-05-07 15:07 33.99369 -117.98831 6099 ft 283 kts 263°
2026-05-07 15:07 33.99142 -118.01148 5758 ft 281 kts 263°
2026-05-07 15:08 33.98908 -118.03507 5369 ft 279 kts 263°
2026-05-07 15:08 33.98677 -118.05796 5027 ft 278 kts 263°
2026-05-07 15:08 33.98442 -118.08108 4656 ft 276 kts 263°
2026-05-07 15:08 33.98213 -118.10391 4286 ft 273 kts 263°
2026-05-07 15:09 33.97988 -118.12661 4008 ft 269 kts 263°
2026-05-07 15:09 33.97767 -118.14874 3981 ft 265 kts 263°
2026-05-07 15:09 33.97552 -118.17016 3866 ft 250 kts 264°
2026-05-07 15:09 33.97347 -118.19064 3555 ft 243 kts 264°
2026-05-07 15:10 33.97147 -118.21054 3251 ft 236 kts 263°
2026-05-07 15:10 33.96953 -118.22990 2949 ft 230 kts 263°
2026-05-07 15:10 33.96763 -118.24875 2655 ft 224 kts 263°
2026-05-07 15:10 33.96576 -118.26729 2362 ft 221 kts 263°
2026-05-07 15:11 33.96393 -118.28536 2084 ft 211 kts 264°
2026-05-07 15:11 33.96222 -118.30234 1828 ft 196 kts 263°
2026-05-07 15:11 33.96062 -118.31813 1546 ft 183 kts 263°
2026-05-07 15:11 33.95914 -118.33265 1311 ft 163 kts 263°
2026-05-07 15:12 33.95784 -118.34549 1102 ft 149 kts 263°
2026-05-07 15:12 33.95666 -118.35761 850 ft 142 kts 262°
2026-05-07 15:12 33.95551 -118.36907 658 ft 137 kts 261°
2026-05-07 15:12 33.95429 -118.38052 474 ft 137 kts 262°
2026-05-07 15:13 33.95313 -118.39190 292 ft 136 kts 262°
2026-05-07 15:13 33.95197 -118.40316 135 ft 135 kts 262°
2026-05-07 15:13 33.95091 -118.41371 95 ft 105 kts 263°
2026-05-07 15:13 33.95025 -118.42004 93 ft 53 kts 263°
2026-05-07 15:14 33.94967 -118.42320 95 ft 24 kts 239°
2026-05-07 15:14 33.94890 -118.42440 94 ft 14 kts 227°
2026-05-07 15:14 33.94810 -118.42487 100 ft 15 kts 181°
2026-05-07 15:14 33.94684 -118.42466 95 ft 18 kts 143°
2026-05-07 15:15 33.94673 -118.42323 94 ft 18 kts 83°
2026-05-07 15:15 33.94691 -118.42176 96 ft 18 kts 83°
2026-05-07 15:15 33.94704 -118.42032 95 ft 18 kts 84°
2026-05-07 15:15 33.94717 -118.41883 96 ft 18 kts 84°
2026-05-07 15:16 33.94733 -118.41730 95 ft 19 kts 83°
2026-05-07 15:16 33.94748 -118.41576 97 ft 18 kts 83°
2026-05-07 15:16 33.94765 -118.41424 97 ft 18 kts 81°
2026-05-07 15:16 33.94792 -118.41279 96 ft 18 kts 79°
2026-05-07 15:17 33.94808 -118.41136 96 ft 17 kts 83°
2026-05-07 15:17 33.94822 -118.40998 95 ft 16 kts 83°
2026-05-07 15:17 33.94836 -118.40861 95 ft 16 kts 82°
2026-05-07 15:17 33.94850 -118.40726 96 ft 16 kts 82°
2026-05-07 15:18 33.94844 -118.40607 97 ft 13 kts 138°
2026-05-07 15:18 33.94751 -118.40591 94 ft 14 kts 174°
2026-05-07 15:18 33.94656 -118.40579 93 ft 14 kts 174°
2026-05-07 15:18 33.94588 -118.40559 94 ft 6 kts 171°
2026-05-07 15:19 33.94569 -118.40588 94 ft 4 kts 262°
2026-05-07 15:19 33.94565 -118.40622 93 ft 4 kts 263°
2026-05-07 15:19 33.94565 -118.40628 93 ft 1 kts 263°
2026-05-07 15:19 33.94564 -118.40632 93 ft 0 kts 263°